Time,TemperatureF,DewpointF,PressureIn,WindDirection,WindDirectionDegrees,WindSpeedMPH,WindSpeedGustMPH,Humidity,HourlyPrecipIn,Conditions,Clouds,dailyrainin,SoftwareType,DateUTC
2013-09-02 00:01:00,78.1,53.8,28.97,SW,225,1.1,1.1,43,0.00,,---,0.00,VWS V14.01,2013-09-02 05:01:00,
2013-09-02 00:06:00,78.1,53.8,28.97,SW,225,1.1,1.1,43,0.00,,---,0.00,VWS V14.01,2013-09-02 05:06:00,
2013-09-02 00:11:00,78.1,53.8,28.97,SW,225,1.1,1.1,43,0.00,,---,0.00,VWS V14.01,2013-09-02 05:11:00,
2013-09-02 00:16:00,78.1,53.8,28.97,SW,225,1.1,1.1,43,0.00,,---,0.00,VWS V14.01,2013-09-02 05:16:00,
2013-09-02 00:21:00,78.1,53.8,28.97,SW,225,1.1,1.1,43,0.00,,---,0.00,VWS V14.01,2013-09-02 05:21:00,
2013-09-02 00:26:00,78.1,53.8,28.97,SW,225,1.1,1.1,43,0.00,,---,0.00,VWS V14.01,2013-09-02 05:26:00,
2013-09-02 00:31:00,78.1,53.8,28.97,SW,225,1.1,1.1,43,0.00,,---,0.00,VWS V14.01,2013-09-02 05:31:00,
2013-09-02 00:36:00,78.1,53.8,28.97,SW,225,1.1,1.1,43,0.00,,---,0.00,VWS V14.01,2013-09-02 05:36:00,
2013-09-02 00:42:00,78.1,53.8,28.97,SW,225,1.1,1.1,43,0.00,,---,0.00,VWS V14.01,2013-09-02 05:42:00,
2013-09-02 00:47:00,78.1,53.8,28.97,SW,225,1.1,1.1,43,0.00,,---,0.00,VWS V14.01,2013-09-02 05:47:00,
2013-09-02 00:52:00,78.1,53.8,28.97,SW,225,1.1,1.1,43,0.00,,---,0.00,VWS V14.01,2013-09-02 05:52:00,
2013-09-02 00:57:00,78.1,53.8,28.97,SW,225,1.1,1.1,43,0.00,,---,0.00,VWS V14.01,2013-09-02 05:57:00,
2013-09-02 01:02:00,78.1,53.8,28.97,SW,225,1.1,1.1,43,0.00,,---,0.00,VWS V14.01,2013-09-02 06:02:00,
2013-09-02 01:07:00,78.1,53.8,28.97,SW,225,1.1,1.1,43,0.00,,---,0.00,VWS V14.01,2013-09-02 06:07:00,
2013-09-02 01:12:00,78.1,53.8,28.97,SW,225,1.1,1.1,43,0.00,,---,0.00,VWS V14.01,2013-09-02 06:12:00,
2013-09-02 01:17:00,78.1,53.8,28.97,SW,225,1.1,1.1,43,0.00,,---,0.00,VWS V14.01,2013-09-02 06:17:00,
2013-09-02 01:22:00,78.1,53.8,28.97,SW,225,1.1,1.1,43,0.00,,---,0.00,VWS V14.01,2013-09-02 06:22:00,
2013-09-02 01:27:00,78.1,53.8,28.97,SW,225,1.1,1.1,43,0.00,,---,0.00,VWS V14.01,2013-09-02 06:27:00,
2013-09-02 01:32:00,78.1,53.8,29.00,SW,225,1.1,1.1,43,0.00,,---,0.00,VWS V14.01,2013-09-02 06:32:00,
2013-09-02 01:38:00,78.1,53.8,29.00,SW,225,1.1,1.1,43,0.00,,---,0.00,VWS V14.01,2013-09-02 06:38:00,
2013-09-02 01:43:00,78.1,53.8,29.00,SW,225,1.1,1.1,43,0.00,,---,0.00,VWS V14.01,2013-09-02 06:43:00,
2013-09-02 01:48:00,78.1,53.8,29.00,SW,225,1.1,1.1,43,0.00,,---,0.00,VWS V14.01,2013-09-02 06:48:00,
2013-09-02 01:53:00,78.1,53.8,29.00,SW,225,1.1,1.1,43,0.00,,---,0.00,VWS V14.01,2013-09-02 06:53:00,
2013-09-02 01:58:00,78.1,53.8,29.00,SW,225,1.1,1.1,43,0.00,,---,0.00,VWS V14.01,2013-09-02 06:58:00,
2013-09-02 02:03:00,78.1,53.8,29.00,SW,225,1.1,1.1,43,0.00,,---,0.00,VWS V14.01,2013-09-02 07:03:00,
2013-09-02 02:08:00,78.1,53.8,29.00,SW,225,1.1,1.1,43,0.00,,---,0.00,VWS V14.01,2013-09-02 07:08:00,
2013-09-02 02:13:00,64.0,55.2,29.00,SW,225,0.0,0.0,73,0.00,,---,0.00,VWS V14.01,2013-09-02 07:13:00,
2013-09-02 02:18:00,63.9,55.0,29.00,SW,225,0.0,0.0,73,0.00,,---,0.00,VWS V14.01,2013-09-02 07:18:00,
2013-09-02 02:23:00,63.9,55.0,29.00,SW,225,0.0,0.0,73,0.00,,---,0.00,VWS V14.01,2013-09-02 07:23:00,
2013-09-02 02:28:00,63.7,54.9,29.00,SW,225,0.0,0.0,73,0.00,,---,0.00,VWS V14.01,2013-09-02 07:28:00,
2013-09-02 02:33:00,63.5,55.1,29.00,SW,225,0.0,0.0,74,0.00,,---,0.00,VWS V14.01,2013-09-02 07:33:00,
2013-09-02 02:38:00,63.3,54.5,29.00,SW,225,0.0,0.0,73,0.00,,---,0.00,VWS V14.01,2013-09-02 07:38:00,
2013-09-02 02:43:00,63.1,54.7,29.00,SW,225,0.0,0.0,74,0.00,,---,0.00,VWS V14.01,2013-09-02 07:43:00,
2013-09-02 02:48:00,63.1,54.7,29.00,SW,225,0.0,0.0,74,0.00,,---,0.00,VWS V14.01,2013-09-02 07:48:00,
2013-09-02 02:53:00,63.0,54.5,29.00,SW,225,0.0,0.0,74,0.00,,---,0.00,VWS V14.01,2013-09-02 07:53:00,
2013-09-02 02:58:00,63.0,54.9,29.00,SW,225,0.0,0.0,75,0.00,,---,0.00,VWS V14.01,2013-09-02 07:58:00,
2013-09-02 03:04:00,62.8,54.8,29.00,SW,225,0.0,0.0,75,0.00,,---,0.00,VWS V14.01,2013-09-02 08:04:00,
2013-09-02 03:09:00,62.8,54.8,29.00,SW,225,0.0,0.0,75,0.00,,---,0.00,VWS V14.01,2013-09-02 08:09:00,
2013-09-02 03:14:00,62.6,54.6,29.00,SW,225,0.0,0.0,75,0.00,,---,0.00,VWS V14.01,2013-09-02 08:14:00,
2013-09-02 03:19:00,62.6,54.6,29.00,SW,225,0.0,0.0,75,0.00,,---,0.00,VWS V14.01,2013-09-02 08:19:00,
2013-09-02 03:24:00,62.4,54.8,29.00,SW,225,0.0,0.0,76,0.00,,---,0.00,VWS V14.01,2013-09-02 08:24:00,
2013-09-02 03:29:00,62.4,54.8,29.00,SW,225,0.0,0.0,76,0.00,,---,0.00,VWS V14.01,2013-09-02 08:29:00,
2013-09-02 03:34:00,62.2,55.0,29.00,SW,225,0.0,0.0,77,0.00,,---,0.00,VWS V14.01,2013-09-02 08:34:00,
2013-09-02 03:39:00,62.2,55.0,29.00,SW,225,0.0,0.0,77,0.00,,---,0.00,VWS V14.01,2013-09-02 08:39:00,
2013-09-02 03:44:00,62.1,54.8,29.00,SW,225,0.0,0.0,77,0.00,,---,0.00,VWS V14.01,2013-09-02 08:44:00,
2013-09-02 03:49:00,61.9,54.6,29.00,SW,225,0.0,0.0,77,0.00,,---,0.00,VWS V14.01,2013-09-02 08:49:00,
2013-09-02 03:54:00,61.9,55.0,29.00,SW,225,0.0,0.0,78,0.00,,---,0.00,VWS V14.01,2013-09-02 08:54:00,
2013-09-02 04:00:00,61.7,54.8,29.00,SW,225,0.0,0.0,78,0.00,,---,0.00,VWS V14.01,2013-09-02 09:00:00,
2013-09-02 04:05:00,61.7,54.8,29.00,SW,225,0.0,0.0,78,0.00,,---,0.00,VWS V14.01,2013-09-02 09:05:00,
2013-09-02 04:10:00,61.5,54.6,29.00,SW,225,0.0,0.0,78,0.00,,---,0.00,VWS V14.01,2013-09-02 09:10:00,
2013-09-02 04:15:00,61.3,54.4,29.00,SW,225,0.0,0.0,78,0.00,,---,0.00,VWS V14.01,2013-09-02 09:15:00,
2013-09-02 04:20:00,61.3,54.8,29.00,SW,225,0.0,0.0,79,0.00,,---,0.00,VWS V14.01,2013-09-02 09:20:00,
2013-09-02 04:25:00,61.2,54.6,29.00,SW,225,0.0,0.0,79,0.00,,---,0.00,VWS V14.01,2013-09-02 09:25:00,
2013-09-02 04:30:00,61.2,54.6,29.00,SW,225,0.0,0.0,79,0.00,,---,0.00,VWS V14.01,2013-09-02 09:30:00,
2013-09-02 04:35:00,61.0,54.4,29.00,SW,225,0.0,0.0,79,0.00,,---,0.00,VWS V14.01,2013-09-02 09:35:00,
2013-09-02 04:40:00,61.0,54.4,29.00,SW,225,0.0,0.0,79,0.00,,---,0.00,VWS V14.01,2013-09-02 09:40:00,
2013-09-02 04:45:00,60.8,54.6,29.00,SW,225,0.0,0.0,80,0.00,,---,0.00,VWS V14.01,2013-09-02 09:45:00,
2013-09-02 04:50:00,60.6,54.4,29.00,SW,225,0.0,0.0,80,0.00,,---,0.00,VWS V14.01,2013-09-02 09:50:00,
2013-09-02 04:55:00,60.6,54.4,29.00,SW,225,0.0,0.0,80,0.00,,---,0.00,VWS V14.01,2013-09-02 09:55:00,
2013-09-02 05:00:00,60.4,54.2,29.00,SW,225,0.0,0.0,80,0.00,,---,0.00,VWS V14.01,2013-09-02 10:00:00,
2013-09-02 05:05:00,60.4,54.2,29.00,SW,225,0.0,0.0,80,0.00,,---,0.00,VWS V14.01,2013-09-02 10:05:00,
2013-09-02 05:10:00,60.3,54.4,29.00,SW,225,0.0,0.0,81,0.00,,---,0.00,VWS V14.01,2013-09-02 10:10:00,
2013-09-02 05:15:00,60.3,54.4,29.00,SW,225,0.0,0.0,81,0.00,,---,0.00,VWS V14.01,2013-09-02 10:15:00,
2013-09-02 05:20:00,60.1,54.2,29.00,SW,225,0.0,0.0,81,0.00,,---,0.00,VWS V14.01,2013-09-02 10:20:00,
2013-09-02 05:26:00,60.1,54.2,29.00,SW,225,0.0,0.0,81,0.00,,---,0.00,VWS V14.01,2013-09-02 10:26:00,
2013-09-02 05:31:00,59.9,54.1,29.03,SW,225,0.0,0.0,81,0.00,,---,0.00,VWS V14.01,2013-09-02 10:31:00,
2013-09-02 05:36:00,59.7,54.2,29.03,SW,225,0.0,0.0,82,0.00,,---,0.00,VWS V14.01,2013-09-02 10:36:00,
2013-09-02 05:41:00,59.7,54.2,29.03,SW,225,0.0,0.0,82,0.00,,---,0.00,VWS V14.01,2013-09-02 10:41:00,
2013-09-02 05:46:00,59.7,54.2,29.00,SW,225,0.0,0.0,82,0.00,,---,0.00,VWS V14.01,2013-09-02 10:46:00,
2013-09-02 05:51:00,59.5,54.0,29.00,SW,225,0.0,0.0,82,0.00,,---,0.00,VWS V14.01,2013-09-02 10:51:00,
2013-09-02 05:56:00,59.5,54.0,29.00,SW,225,0.0,0.0,82,0.00,,---,0.00,VWS V14.01,2013-09-02 10:56:00,
2013-09-02 06:01:00,59.4,53.9,29.03,SW,225,0.0,0.0,82,0.00,,---,0.00,VWS V14.01,2013-09-02 11:01:00,
2013-09-02 06:06:00,59.4,54.2,29.03,SW,225,0.0,0.0,83,0.00,,---,0.00,VWS V14.01,2013-09-02 11:06:00,
2013-09-02 06:11:00,59.4,53.9,29.03,SW,225,0.0,0.0,82,0.00,,---,0.00,VWS V14.01,2013-09-02 11:11:00,
2013-09-02 06:16:00,59.2,54.0,29.03,SW,225,0.0,0.0,83,0.00,,---,0.00,VWS V14.01,2013-09-02 11:16:00,
2013-09-02 06:21:00,59.2,54.0,29.03,SW,225,0.0,0.0,83,0.00,,---,0.00,VWS V14.01,2013-09-02 11:21:00,
2013-09-02 06:26:00,59.0,53.8,29.03,SW,225,0.0,0.0,83,0.00,,---,0.00,VWS V14.01,2013-09-02 11:26:00,
2013-09-02 06:31:00,59.0,53.8,29.03,SW,225,0.0,0.0,83,0.00,,---,0.00,VWS V14.01,2013-09-02 11:31:00,
2013-09-02 06:36:00,58.8,53.7,29.03,SW,225,0.0,0.0,83,0.00,,---,0.00,VWS V14.01,2013-09-02 11:36:00,
2013-09-02 06:41:00,58.8,54.0,29.03,SW,225,0.0,0.0,84,0.00,,---,0.00,VWS V14.01,2013-09-02 11:41:00,
2013-09-02 06:46:00,58.8,54.0,29.03,SW,225,0.0,0.0,84,0.00,,---,0.00,VWS V14.01,2013-09-02 11:46:00,
2013-09-02 06:52:00,58.6,53.8,29.03,SW,225,0.0,0.0,84,0.00,,---,0.00,VWS V14.01,2013-09-02 11:52:00,
2013-09-02 06:57:00,58.6,53.8,29.03,SW,225,0.0,0.0,84,0.00,,---,0.00,VWS V14.01,2013-09-02 11:57:00,
2013-09-02 07:02:00,58.5,53.7,29.03,SW,225,0.0,0.0,84,0.00,,---,0.00,VWS V14.01,2013-09-02 12:02:00,
2013-09-02 07:07:00,58.5,53.7,29.03,SW,225,0.0,0.0,84,0.00,,---,0.00,VWS V14.01,2013-09-02 12:07:00,
2013-09-02 07:12:00,58.5,53.7,29.03,SW,225,0.0,0.0,84,0.00,,---,0.00,VWS V14.01,2013-09-02 12:12:00,
2013-09-02 07:17:00,58.5,53.7,29.06,SW,225,0.0,0.0,84,0.00,,---,0.00,VWS V14.01,2013-09-02 12:17:00,
2013-09-02 07:22:00,58.6,54.2,29.06,SW,225,0.0,0.0,85,0.00,,---,0.00,VWS V14.01,2013-09-02 12:22:00,
2013-09-02 07:27:00,58.6,54.2,29.06,SW,225,0.0,0.0,85,0.00,,---,0.00,VWS V14.01,2013-09-02 12:27:00,
2013-09-02 07:32:00,58.8,54.3,29.06,SW,225,0.0,0.0,85,0.00,,---,0.00,VWS V14.01,2013-09-02 12:32:00,
2013-09-02 07:37:00,58.8,54.3,29.06,SW,225,0.0,0.0,85,0.00,,---,0.00,VWS V14.01,2013-09-02 12:37:00,
2013-09-02 07:42:00,58.8,54.3,29.06,SW,225,0.0,0.0,85,0.00,,---,0.00,VWS V14.01,2013-09-02 12:42:00,
2013-09-02 07:47:00,59.0,54.5,29.06,SW,225,0.0,0.0,85,0.00,,---,0.00,VWS V14.01,2013-09-02 12:47:00,
2013-09-02 07:52:00,59.2,54.7,29.06,SW,225,0.0,0.0,85,0.00,,---,0.00,VWS V14.01,2013-09-02 12:52:00,
2013-09-02 07:57:00,59.2,54.4,29.06,SW,225,0.0,1.3,84,0.00,,---,0.00,VWS V14.01,2013-09-02 12:57:00,
2013-09-02 08:02:00,59.4,54.5,29.06,WSW,248,0.0,2.2,84,0.00,,---,0.00,VWS V14.01,2013-09-02 13:02:00,
2013-09-02 08:07:00,59.4,54.5,29.06,SW,225,0.0,0.0,84,0.00,,---,0.00,VWS V14.01,2013-09-02 13:07:00,
2013-09-02 08:12:00,59.7,54.9,29.06,SSW,202,2.2,2.2,84,0.00,,---,0.00,VWS V14.01,2013-09-02 13:12:00,
2013-09-02 08:17:00,59.7,54.9,29.06,SSW,202,0.0,0.0,84,0.00,,---,0.00,VWS V14.01,2013-09-02 13:17:00,
2013-09-02 08:22:00,60.1,55.2,29.06,WSW,248,1.1,1.1,84,0.00,,---,0.00,VWS V14.01,2013-09-02 13:22:00,
2013-09-02 08:27:00,60.1,55.2,29.06,SW,225,0.0,1.3,84,0.00,,---,0.00,VWS V14.01,2013-09-02 13:27:00,
2013-09-02 08:32:00,60.3,55.4,29.06,WSW,248,2.0,2.0,84,0.00,,---,0.00,VWS V14.01,2013-09-02 13:32:00,
2013-09-02 08:37:00,60.4,55.3,29.06,WSW,248,0.0,0.0,83,0.00,,---,0.00,VWS V14.01,2013-09-02 13:37:00,
2013-09-02 08:42:00,60.6,55.4,29.06,WSW,248,0.0,0.0,83,0.00,,---,0.00,VWS V14.01,2013-09-02 13:42:00,
2013-09-02 08:47:00,60.8,55.6,29.06,SW,225,0.0,0.0,83,0.00,,---,0.00,VWS V14.01,2013-09-02 13:47:00,
2013-09-02 08:52:00,61.0,55.5,29.06,WSW,248,2.5,2.5,82,0.00,,---,0.00,VWS V14.01,2013-09-02 13:52:00,
2013-09-02 08:58:00,61.0,55.5,29.06,SW,225,1.1,1.1,82,0.00,,---,0.00,VWS V14.01,2013-09-02 13:58:00,
2013-09-02 09:03:00,61.3,55.8,29.06,SW,225,0.0,0.0,82,0.00,,---,0.00,VWS V14.01,2013-09-02 14:03:00,
2013-09-02 09:08:00,61.5,56.0,29.06,SW,225,0.0,0.0,82,0.00,,---,0.00,VWS V14.01,2013-09-02 14:08:00,
2013-09-02 09:13:00,61.9,56.3,29.06,SW,225,0.0,0.0,82,0.00,,---,0.00,VWS V14.01,2013-09-02 14:13:00,
2013-09-02 09:18:00,62.2,56.7,29.06,SW,225,0.0,0.0,82,0.00,,---,0.00,VWS V14.01,2013-09-02 14:18:00,
2013-09-02 09:23:00,62.6,56.7,29.06,SW,225,0.0,0.0,81,0.00,,---,0.00,VWS V14.01,2013-09-02 14:23:00,
2013-09-02 09:28:00,62.8,56.9,29.06,SW,225,0.0,0.0,81,0.00,,---,0.00,VWS V14.01,2013-09-02 14:28:00,
2013-09-02 09:33:00,63.1,56.9,29.09,SW,225,0.0,0.0,80,0.00,,---,0.00,VWS V14.01,2013-09-02 14:33:00,
2013-09-02 09:38:00,63.5,57.2,29.09,WSW,248,0.0,0.0,80,0.00,,---,0.00,VWS V14.01,2013-09-02 14:38:00,
2013-09-02 09:43:00,64.0,57.4,29.09,WSW,248,0.0,0.0,79,0.00,,---,0.00,VWS V14.01,2013-09-02 14:43:00,
2013-09-02 09:48:00,64.2,57.6,29.06,WSW,248,0.0,0.0,79,0.00,,---,0.00,VWS V14.01,2013-09-02 14:48:00,
2013-09-02 09:53:00,64.6,57.2,29.06,WNW,292,0.0,0.0,77,0.00,,---,0.00,VWS V14.01,2013-09-02 14:53:00,
2013-09-02 09:58:00,64.9,57.6,29.06,WNW,292,0.0,0.0,77,0.00,,---,0.00,VWS V14.01,2013-09-02 14:58:00,
2013-09-02 10:03:00,65.3,57.5,29.06,SW,225,0.0,0.0,76,0.00,,---,0.00,VWS V14.01,2013-09-02 15:03:00,
2013-09-02 10:08:00,65.5,57.4,29.06,SW,225,0.0,0.0,75,0.00,,---,0.00,VWS V14.01,2013-09-02 15:08:00,
2013-09-02 10:13:00,66.0,57.5,29.06,SW,225,0.0,0.0,74,0.00,,---,0.00,VWS V14.01,2013-09-02 15:13:00,
2013-09-02 10:18:00,66.4,57.8,29.06,SW,225,0.9,0.9,74,0.00,,---,0.00,VWS V14.01,2013-09-02 15:18:00,
2013-09-02 10:23:00,66.7,57.4,29.06,SW,225,0.0,0.0,72,0.00,,---,0.00,VWS V14.01,2013-09-02 15:23:00,
2013-09-02 10:28:00,66.9,57.6,29.06,SW,225,0.0,0.0,72,0.00,,---,0.00,VWS V14.01,2013-09-02 15:28:00,
2013-09-02 10:33:00,67.1,57.4,29.06,WSW,248,0.0,0.0,71,0.00,,---,0.00,VWS V14.01,2013-09-02 15:33:00,
2013-09-02 10:38:00,67.5,57.3,29.06,WSW,248,0.0,0.0,70,0.00,,---,0.00,VWS V14.01,2013-09-02 15:38:00,
2013-09-02 10:43:00,67.6,56.7,29.06,WSW,248,1.1,1.1,68,0.00,,---,0.00,VWS V14.01,2013-09-02 15:43:00,
2013-09-02 10:48:00,67.8,56.9,29.06,East,90,0.0,0.0,68,0.00,,---,0.00,VWS V14.01,2013-09-02 15:48:00,
2013-09-02 10:53:00,68.0,56.2,29.06,SW,225,0.0,1.3,66,0.00,,---,0.00,VWS V14.01,2013-09-02 15:53:00,
2013-09-02 10:58:00,68.2,56.0,29.06,WSW,248,2.5,2.5,65,0.00,,---,0.00,VWS V14.01,2013-09-02 15:58:00,
2013-09-02 11:03:00,68.4,56.2,29.06,SW,225,0.0,1.1,65,0.00,,---,0.00,VWS V14.01,2013-09-02 16:03:00,
2013-09-02 11:08:00,68.5,56.7,29.06,WSW,248,1.3,1.3,66,0.00,,---,0.00,VWS V14.01,2013-09-02 16:08:00,
2013-09-02 11:13:00,68.7,56.1,29.06,SW,225,2.5,2.5,64,0.00,,---,0.00,VWS V14.01,2013-09-02 16:13:00,
2013-09-02 11:18:00,68.9,56.2,29.06,NW,315,0.0,0.0,64,0.00,,---,0.00,VWS V14.01,2013-09-02 16:18:00,
2013-09-02 11:23:00,69.1,56.0,29.06,WSW,248,2.5,2.5,63,0.00,,---,0.00,VWS V14.01,2013-09-02 16:23:00,
2013-09-02 11:28:00,69.3,55.7,29.06,SW,225,0.0,0.0,62,0.00,,---,0.00,VWS V14.01,2013-09-02 16:28:00,
2013-09-02 11:33:00,69.4,55.9,29.06,WSW,248,2.2,2.2,62,0.00,,---,0.00,VWS V14.01,2013-09-02 16:33:00,
2013-09-02 11:38:00,69.6,55.6,29.06,SSW,202,0.0,3.1,61,0.00,,---,0.00,VWS V14.01,2013-09-02 16:38:00,
2013-09-02 11:43:00,69.8,55.8,29.06,SW,225,0.0,0.0,61,0.00,,---,0.00,VWS V14.01,2013-09-02 16:43:00,
2013-09-02 11:48:00,70.0,55.5,29.06,SW,225,1.1,2.2,60,0.00,,---,0.00,VWS V14.01,2013-09-02 16:48:00,
2013-09-02 11:53:00,70.2,56.1,29.06,SW,225,0.0,0.0,61,0.00,,---,0.00,VWS V14.01,2013-09-02 16:53:00,
2013-09-02 11:58:00,70.3,55.8,29.06,SW,225,0.9,0.9,60,0.00,,---,0.00,VWS V14.01,2013-09-02 16:58:00,
2013-09-02 12:03:00,70.5,56.0,29.06,SW,225,0.0,0.0,60,0.00,,---,0.00,VWS V14.01,2013-09-02 17:03:00,
2013-09-02 12:08:00,70.5,55.5,29.06,WSW,248,0.0,0.0,59,0.00,,---,0.00,VWS V14.01,2013-09-02 17:08:00,
2013-09-02 12:13:00,70.7,55.2,29.06,West,270,0.0,0.0,58,0.00,,---,0.00,VWS V14.01,2013-09-02 17:13:00,
2013-09-02 12:18:00,70.9,55.4,29.06,South,180,0.0,0.9,58,0.00,,---,0.00,VWS V14.01,2013-09-02 17:18:00,
2013-09-02 12:23:00,71.1,55.1,29.06,SSE,158,0.0,0.0,57,0.00,,---,0.00,VWS V14.01,2013-09-02 17:23:00,
2013-09-02 12:28:00,71.4,55.4,29.06,SW,225,0.0,0.0,57,0.00,,---,0.00,VWS V14.01,2013-09-02 17:28:00,
2013-09-02 12:33:00,71.4,53.9,29.06,South,180,2.5,2.5,54,0.00,,---,0.00,VWS V14.01,2013-09-02 17:33:00,
2013-09-02 12:38:00,71.6,54.1,29.06,WSW,248,0.0,1.6,54,0.00,,---,0.00,VWS V14.01,2013-09-02 17:38:00,
2013-09-02 12:43:00,72.0,53.9,29.06,SSE,158,0.0,0.0,53,0.00,,---,0.00,VWS V14.01,2013-09-02 17:43:00,
2013-09-02 12:48:00,72.3,54.8,29.06,SW,225,0.0,0.0,54,0.00,,---,0.00,VWS V14.01,2013-09-02 17:48:00,
2013-09-02 12:53:00,72.5,54.4,29.06,West,270,0.0,0.0,53,0.00,,---,0.00,VWS V14.01,2013-09-02 17:53:00,
2013-09-02 12:59:00,72.9,53.7,29.06,SW,225,0.0,0.0,51,0.00,,---,0.00,VWS V14.01,2013-09-02 17:59:00,
2013-09-02 13:04:00,72.9,54.2,29.06,SW,225,0.0,0.0,52,0.00,,---,0.00,VWS V14.01,2013-09-02 18:04:00,
2013-09-02 13:09:00,73.2,53.5,29.06,SW,225,0.0,0.0,50,0.00,,---,0.00,VWS V14.01,2013-09-02 18:09:00,
2013-09-02 13:14:00,73.2,52.9,29.06,SW,225,2.5,2.5,49,0.00,,---,0.00,VWS V14.01,2013-09-02 18:14:00,
2013-09-02 13:19:00,73.2,52.4,29.06,SW,225,1.1,1.1,48,0.00,,---,0.00,VWS V14.01,2013-09-02 18:19:00,
2013-09-02 13:24:00,73.4,52.5,29.06,SW,225,0.0,0.0,48,0.00,,---,0.00,VWS V14.01,2013-09-02 18:24:00,
2013-09-02 13:29:00,73.6,52.7,29.06,SSW,202,0.0,0.0,48,0.00,,---,0.00,VWS V14.01,2013-09-02 18:29:00,
2013-09-02 13:34:00,73.6,51.5,29.06,SW,225,0.0,2.7,46,0.00,,---,0.00,VWS V14.01,2013-09-02 18:34:00,
2013-09-02 13:39:00,73.8,52.3,29.06,SW,225,0.0,0.0,47,0.00,,---,0.00,VWS V14.01,2013-09-02 18:39:00,
2013-09-02 13:44:00,73.9,51.3,29.06,SW,225,0.0,1.1,45,0.00,,---,0.00,VWS V14.01,2013-09-02 18:44:00,
2013-09-02 13:49:00,73.9,50.7,29.06,WNW,292,0.0,1.1,44,0.00,,---,0.00,VWS V14.01,2013-09-02 18:49:00,
2013-09-02 13:54:00,73.9,50.7,29.06,WSW,248,0.0,0.0,44,0.00,,---,0.00,VWS V14.01,2013-09-02 18:54:00,
2013-09-02 13:59:00,73.9,50.7,29.06,WSW,248,0.0,0.0,44,0.00,,---,0.00,VWS V14.01,2013-09-02 18:59:00,
2013-09-02 14:04:00,74.1,50.8,29.03,WSW,248,0.0,0.0,44,0.00,,---,0.00,VWS V14.01,2013-09-02 19:04:00,
2013-09-02 14:09:00,74.1,50.8,29.03,East,90,0.0,0.0,44,0.00,,---,0.00,VWS V14.01,2013-09-02 19:09:00,
2013-09-02 14:14:00,74.3,50.4,29.03,SW,225,1.1,2.0,43,0.00,,---,0.00,VWS V14.01,2013-09-02 19:14:00,
2013-09-02 14:20:00,74.3,50.4,29.03,WSW,248,0.0,0.0,43,0.00,,---,0.00,VWS V14.01,2013-09-02 19:20:00,
2013-09-02 14:25:00,74.3,50.4,29.03,WSW,248,2.0,2.0,43,0.00,,---,0.00,VWS V14.01,2013-09-02 19:25:00,
2013-09-02 14:30:00,74.5,51.2,29.03,WSW,248,0.0,0.0,44,0.00,,---,0.00,VWS V14.01,2013-09-02 19:30:00,
2013-09-02 14:35:00,74.5,51.2,29.03,WSW,248,0.0,0.0,44,0.00,,---,0.00,VWS V14.01,2013-09-02 19:35:00,
2013-09-02 14:40:00,74.7,51.3,29.03,WSW,248,0.0,0.0,44,0.00,,---,0.00,VWS V14.01,2013-09-02 19:40:00,
2013-09-02 14:45:00,74.8,50.9,29.03,WNW,292,0.0,0.0,43,0.00,,---,0.00,VWS V14.01,2013-09-02 19:45:00,
2013-09-02 14:50:00,74.8,50.9,29.03,WSW,248,0.0,0.0,43,0.00,,---,0.00,VWS V14.01,2013-09-02 19:50:00,
2013-09-02 14:55:00,74.8,50.9,29.03,SW,225,0.0,0.0,43,0.00,,---,0.00,VWS V14.01,2013-09-02 19:55:00,
2013-09-02 15:00:00,75.0,51.0,29.03,SW,225,0.0,0.0,43,0.00,,---,0.00,VWS V14.01,2013-09-02 20:00:00,
2013-09-02 15:05:00,75.0,51.0,29.03,SW,225,1.1,1.1,43,0.00,,---,0.00,VWS V14.01,2013-09-02 20:05:00,
2013-09-02 15:10:00,75.0,51.0,29.03,SW,225,0.0,0.0,43,0.00,,---,0.00,VWS V14.01,2013-09-02 20:10:00,
2013-09-02 15:16:00,75.0,51.0,29.00,WSW,248,0.0,0.0,43,0.00,,---,0.00,VWS V14.01,2013-09-02 20:16:00,
2013-09-02 15:21:00,75.2,51.2,29.00,SW,225,1.6,1.6,43,0.00,,---,0.00,VWS V14.01,2013-09-02 20:21:00,
2013-09-02 15:26:00,75.2,50.6,29.00,ESE,112,0.0,0.0,42,0.00,,---,0.00,VWS V14.01,2013-09-02 20:26:00,
2013-09-02 15:31:00,75.2,50.6,29.00,SW,225,0.0,0.0,42,0.00,,---,0.00,VWS V14.01,2013-09-02 20:31:00,
2013-09-02 15:36:00,75.0,50.4,29.00,SW,225,0.0,0.0,42,0.00,,---,0.00,VWS V14.01,2013-09-02 20:36:00,
2013-09-02 15:41:00,75.2,50.6,29.00,SW,225,2.0,2.0,42,0.00,,---,0.00,VWS V14.01,2013-09-02 20:41:00,
2013-09-02 15:46:00,75.2,50.6,29.03,SW,225,0.0,1.3,42,0.00,,---,0.00,VWS V14.01,2013-09-02 20:46:00,
2013-09-02 15:51:00,75.2,50.6,29.03,SW,225,0.0,1.6,42,0.00,,---,0.00,VWS V14.01,2013-09-02 20:51:00,
2013-09-02 15:56:00,75.2,50.6,29.03,SW,225,0.0,0.0,42,0.00,,---,0.00,VWS V14.01,2013-09-02 20:56:00,
2013-09-02 16:01:00,75.4,50.7,29.00,SW,225,0.0,0.0,42,0.00,,---,0.00,VWS V14.01,2013-09-02 21:01:00,
2013-09-02 16:06:00,75.4,50.1,29.00,SW,225,0.0,0.9,41,0.00,,---,0.00,VWS V14.01,2013-09-02 21:06:00,
2013-09-02 16:12:00,75.4,50.1,29.00,East,90,0.0,0.0,41,0.00,,---,0.00,VWS V14.01,2013-09-02 21:12:00,
2013-09-02 16:17:00,75.4,50.1,29.00,SW,225,1.6,1.6,41,0.00,,---,0.00,VWS V14.01,2013-09-02 21:17:00,
2013-09-02 16:22:00,75.4,49.4,29.00,SW,225,0.0,0.0,40,0.00,,---,0.00,VWS V14.01,2013-09-02 21:22:00,
2013-09-02 16:27:00,75.4,49.4,29.00,SW,225,0.0,0.0,40,0.00,,---,0.00,VWS V14.01,2013-09-02 21:27:00,
2013-09-02 16:32:00,75.2,49.2,29.00,SW,225,0.0,0.0,40,0.00,,---,0.00,VWS V14.01,2013-09-02 21:32:00,
2013-09-02 16:37:00,75.2,49.2,29.00,East,90,0.0,0.0,40,0.00,,---,0.00,VWS V14.01,2013-09-02 21:37:00,
2013-09-02 16:42:00,75.4,49.4,29.00,SSW,202,0.0,0.0,40,0.00,,---,0.00,VWS V14.01,2013-09-02 21:42:00,
2013-09-02 16:47:00,75.4,49.4,29.00,SW,225,0.0,0.0,40,0.00,,---,0.00,VWS V14.01,2013-09-02 21:47:00,
2013-09-02 16:52:00,75.4,49.4,29.00,SW,225,0.0,0.9,40,0.00,,---,0.00,VWS V14.01,2013-09-02 21:52:00,
2013-09-02 16:57:00,75.6,48.9,29.00,SSW,202,1.1,2.0,39,0.00,,---,0.00,VWS V14.01,2013-09-02 21:57:00,
2013-09-02 17:02:00,75.6,48.2,29.00,SSW,202,0.0,0.0,38,0.00,,---,0.00,VWS V14.01,2013-09-02 22:02:00,
2013-09-02 17:08:00,75.6,48.9,29.00,SW,225,0.0,0.0,39,0.00,,---,0.00,VWS V14.01,2013-09-02 22:08:00,
2013-09-02 17:13:00,75.4,48.0,29.00,SW,225,0.0,0.0,38,0.00,,---,0.00,VWS V14.01,2013-09-02 22:13:00,
2013-09-02 17:18:00,75.4,48.0,29.00,SW,225,0.0,0.0,38,0.00,,---,0.00,VWS V14.01,2013-09-02 22:18:00,
2013-09-02 17:23:00,75.2,47.9,29.00,SW,225,0.0,0.0,38,0.00,,---,0.00,VWS V14.01,2013-09-02 22:23:00,
2013-09-02 17:28:00,75.2,47.9,29.00,SW,225,0.0,0.0,38,0.00,,---,0.00,VWS V14.01,2013-09-02 22:28:00,
2013-09-02 17:33:00,75.0,47.7,29.00,SW,225,0.0,0.0,38,0.00,,---,0.00,VWS V14.01,2013-09-02 22:33:00,
2013-09-02 17:38:00,75.0,47.7,29.00,SW,225,0.0,0.0,38,0.00,,---,0.00,VWS V14.01,2013-09-02 22:38:00,
2013-09-02 17:43:00,74.8,47.6,29.00,West,270,0.0,0.0,38,0.00,,---,0.00,VWS V14.01,2013-09-02 22:43:00,
2013-09-02 17:48:00,74.8,47.6,29.00,WSW,248,0.0,0.0,38,0.00,,---,0.00,VWS V14.01,2013-09-02 22:48:00,
2013-09-02 17:53:00,74.8,47.6,29.00,WSW,248,0.0,0.9,38,0.00,,---,0.00,VWS V14.01,2013-09-02 22:53:00,
2013-09-02 17:58:00,74.8,47.6,29.00,SW,225,2.5,2.5,38,0.00,,---,0.00,VWS V14.01,2013-09-02 22:58:00,
2013-09-02 18:03:00,74.8,47.6,29.00,SW,225,0.0,0.0,38,0.00,,---,0.00,VWS V14.01,2013-09-02 23:03:00,
2013-09-02 18:08:00,74.7,47.4,29.00,WSW,248,0.0,0.0,38,0.00,,---,0.00,VWS V14.01,2013-09-02 23:08:00,
2013-09-02 18:13:00,74.5,47.2,29.00,WSW,248,0.0,0.0,38,0.00,,---,0.00,VWS V14.01,2013-09-02 23:13:00,
2013-09-02 18:18:00,74.5,47.2,29.03,WNW,292,0.0,0.0,38,0.00,,---,0.00,VWS V14.01,2013-09-02 23:18:00,
2013-09-02 18:23:00,74.5,47.2,29.03,WSW,248,0.0,0.0,38,0.00,,---,0.00,VWS V14.01,2013-09-02 23:23:00,
2013-09-02 18:28:00,74.5,47.2,29.03,SW,225,0.0,1.1,38,0.00,,---,0.00,VWS V14.01,2013-09-02 23:28:00,
2013-09-02 18:33:00,74.3,47.1,29.00,SW,225,0.0,0.0,38,0.00,,---,0.00,VWS V14.01,2013-09-02 23:33:00,
2013-09-02 18:38:00,74.3,46.4,29.00,WSW,248,0.0,0.0,37,0.00,,---,0.00,VWS V14.01,2013-09-02 23:38:00,
2013-09-02 18:43:00,74.1,46.9,29.00,WSW,248,0.0,0.0,38,0.00,,---,0.00,VWS V14.01,2013-09-02 23:43:00,
2013-09-02 18:48:00,73.9,46.0,29.00,WSW,248,0.0,0.0,37,0.00,,---,0.00,VWS V14.01,2013-09-02 23:48:00,
2013-09-02 18:53:00,73.9,46.8,29.00,WSW,248,0.0,0.0,38,0.00,,---,0.00,VWS V14.01,2013-09-02 23:53:00,
2013-09-02 18:58:00,73.8,46.6,29.00,WSW,248,0.0,1.3,38,0.00,,---,0.00,VWS V14.01,2013-09-02 23:58:00,
2013-09-02 19:03:00,73.4,46.3,29.00,WSW,248,0.0,0.0,38,0.00,,---,0.00,VWS V14.01,2013-09-03 00:03:00,
2013-09-02 19:08:00,73.2,46.8,29.00,WSW,248,0.0,0.0,39,0.00,,---,0.00,VWS V14.01,2013-09-03 00:08:00,
2013-09-02 19:13:00,73.0,47.3,29.00,WSW,248,0.0,0.0,40,0.00,,---,0.00,VWS V14.01,2013-09-03 00:13:00,
2013-09-02 19:18:00,72.9,47.2,29.03,WSW,248,0.0,0.0,40,0.00,,---,0.00,VWS V14.01,2013-09-03 00:18:00,
2013-09-02 19:24:00,72.7,47.7,29.03,SW,225,0.0,0.0,41,0.00,,---,0.00,VWS V14.01,2013-09-03 00:24:00,
2013-09-02 19:29:00,72.5,47.5,29.03,SW,225,0.0,0.0,41,0.00,,---,0.00,VWS V14.01,2013-09-03 00:29:00,
2013-09-02 19:34:00,72.3,47.3,29.00,SW,225,0.0,0.0,41,0.00,,---,0.00,VWS V14.01,2013-09-03 00:34:00,
2013-09-02 19:39:00,72.1,47.2,29.00,SW,225,0.0,0.0,41,0.00,,---,0.00,VWS V14.01,2013-09-03 00:39:00,
2013-09-02 19:44:00,71.8,46.8,29.00,SW,225,0.0,0.0,41,0.00,,---,0.00,VWS V14.01,2013-09-03 00:44:00,
2013-09-02 19:49:00,71.6,47.3,29.00,SW,225,0.0,0.0,42,0.00,,---,0.00,VWS V14.01,2013-09-03 00:49:00,
2013-09-02 19:54:00,71.2,47.6,29.00,SW,225,0.0,0.0,43,0.00,,---,0.00,VWS V14.01,2013-09-03 00:54:00,
2013-09-02 19:59:00,70.9,47.3,29.00,SW,225,0.0,0.0,43,0.00,,---,0.00,VWS V14.01,2013-09-03 00:59:00,
2013-09-02 20:04:00,70.5,47.6,29.00,SW,225,0.0,0.0,44,0.00,,---,0.00,VWS V14.01,2013-09-03 01:04:00,
2013-09-02 20:09:00,70.3,47.4,29.00,SW,225,0.0,0.0,44,0.00,,---,0.00,VWS V14.01,2013-09-03 01:09:00,
2013-09-02 20:14:00,70.2,47.2,29.00,SW,225,0.0,0.0,44,0.00,,---,0.00,VWS V14.01,2013-09-03 01:14:00,
2013-09-02 20:19:00,70.0,47.1,29.03,SW,225,0.0,0.0,44,0.00,,---,0.00,VWS V14.01,2013-09-03 01:19:00,
2013-09-02 20:24:00,69.8,46.9,29.03,SW,225,0.0,0.0,44,0.00,,---,0.00,VWS V14.01,2013-09-03 01:24:00,
2013-09-02 20:29:00,69.6,47.4,29.03,SW,225,0.0,0.0,45,0.00,,---,0.00,VWS V14.01,2013-09-03 01:29:00,
2013-09-02 20:34:00,69.4,47.2,29.03,SW,225,0.0,0.0,45,0.00,,---,0.00,VWS V14.01,2013-09-03 01:34:00,
2013-09-02 20:39:00,69.3,47.6,29.03,SW,225,0.0,0.0,46,0.00,,---,0.00,VWS V14.01,2013-09-03 01:39:00,
2013-09-02 20:44:00,69.1,47.5,29.03,SW,225,0.0,0.0,46,0.00,,---,0.00,VWS V14.01,2013-09-03 01:44:00,
2013-09-02 20:49:00,68.9,47.3,29.03,SW,225,0.0,0.0,46,0.00,,---,0.00,VWS V14.01,2013-09-03 01:49:00,
2013-09-02 20:54:00,68.7,47.1,29.03,SW,225,0.0,0.0,46,0.00,,---,0.00,VWS V14.01,2013-09-03 01:54:00,
2013-09-02 20:59:00,68.5,47.5,29.03,SW,225,0.0,0.0,47,0.00,,---,0.00,VWS V14.01,2013-09-03 01:59:00,
2013-09-02 21:04:00,68.4,47.4,29.03,SW,225,0.0,0.0,47,0.00,,---,0.00,VWS V14.01,2013-09-03 02:04:00,
2013-09-02 21:09:00,68.2,47.2,29.03,SW,225,0.0,0.0,47,0.00,,---,0.00,VWS V14.01,2013-09-03 02:09:00,
2013-09-02 21:14:00,68.2,47.2,29.03,SW,225,0.0,0.0,47,0.00,,---,0.00,VWS V14.01,2013-09-03 02:14:00,
2013-09-02 21:19:00,68.0,47.6,29.03,SW,225,0.0,0.0,48,0.00,,---,0.00,VWS V14.01,2013-09-03 02:19:00,
2013-09-02 21:24:00,67.8,47.4,29.03,SW,225,0.0,0.0,48,0.00,,---,0.00,VWS V14.01,2013-09-03 02:24:00,
2013-09-02 21:29:00,67.6,47.8,29.03,SW,225,0.0,0.0,49,0.00,,---,0.00,VWS V14.01,2013-09-03 02:29:00,
2013-09-02 21:34:00,67.5,47.7,29.03,SW,225,0.0,0.0,49,0.00,,---,0.00,VWS V14.01,2013-09-03 02:34:00,
2013-09-02 21:39:00,67.5,47.7,29.03,SW,225,0.0,0.0,49,0.00,,---,0.00,VWS V14.01,2013-09-03 02:39:00,
2013-09-02 21:44:00,67.3,47.5,29.03,SW,225,0.0,0.0,49,0.00,,---,0.00,VWS V14.01,2013-09-03 02:44:00,
2013-09-02 21:49:00,67.1,47.9,29.03,SW,225,0.0,0.0,50,0.00,,---,0.00,VWS V14.01,2013-09-03 02:49:00,
2013-09-02 21:54:00,66.9,47.7,29.03,SW,225,0.0,0.0,50,0.00,,---,0.00,VWS V14.01,2013-09-03 02:54:00,
2013-09-02 21:59:00,66.7,47.5,29.03,SW,225,0.0,0.0,50,0.00,,---,0.00,VWS V14.01,2013-09-03 02:59:00,
2013-09-02 22:04:00,66.7,48.1,29.03,SW,225,0.0,0.0,51,0.00,,---,0.00,VWS V14.01,2013-09-03 03:04:00,
2013-09-02 22:10:00,66.6,47.9,29.03,SW,225,0.0,0.0,51,0.00,,---,0.00,VWS V14.01,2013-09-03 03:10:00,
2013-09-02 22:15:00,66.4,48.2,29.03,SW,225,0.0,0.0,52,0.00,,---,0.00,VWS V14.01,2013-09-03 03:15:00,
2013-09-02 22:20:00,66.2,48.1,29.03,SW,225,0.0,0.0,52,0.00,,---,0.00,VWS V14.01,2013-09-03 03:20:00,
2013-09-02 22:25:00,65.8,48.2,29.03,SW,225,0.0,0.0,53,0.00,,---,0.00,VWS V14.01,2013-09-03 03:25:00,
2013-09-02 22:30:00,65.7,49.1,29.03,SW,225,0.0,0.0,55,0.00,,---,0.00,VWS V14.01,2013-09-03 03:30:00,
2013-09-02 22:35:00,65.3,48.2,29.03,SW,225,0.0,0.0,54,0.00,,---,0.00,VWS V14.01,2013-09-03 03:35:00,
2013-09-02 22:40:00,65.1,48.6,29.03,SW,225,0.0,0.0,55,0.00,,---,0.00,VWS V14.01,2013-09-03 03:40:00,
2013-09-02 22:45:00,64.8,48.2,29.03,SW,225,0.0,0.0,55,0.00,,---,0.00,VWS V14.01,2013-09-03 03:45:00,
2013-09-02 22:50:00,64.4,48.4,29.03,SW,225,0.0,0.0,56,0.00,,---,0.00,VWS V14.01,2013-09-03 03:50:00,
2013-09-02 22:55:00,64.2,48.7,29.03,SW,225,0.0,0.0,57,0.00,,---,0.00,VWS V14.01,2013-09-03 03:55:00,
2013-09-02 23:00:00,64.0,49.4,29.06,SW,225,0.0,0.0,59,0.00,,---,0.00,VWS V14.01,2013-09-03 04:00:00,
2013-09-02 23:01:00,64.0,49.4,29.06,SW,225,0.0,0.0,59,0.00,,---,0.00,VWS V14.01,2013-09-03 04:01:00,
2013-09-02 23:02:00,63.9,49.3,29.06,SW,225,0.0,0.0,59,0.00,,---,0.00,VWS V14.01,2013-09-03 04:02:00,
2013-09-02 23:03:00,63.9,49.3,29.06,SW,225,0.0,0.0,59,0.00,,---,0.00,VWS V14.01,2013-09-03 04:03:00,
2013-09-02 23:08:00,63.7,49.1,29.06,SW,225,0.0,0.0,59,0.00,,---,0.00,VWS V14.01,2013-09-03 04:08:00,
2013-09-02 23:13:00,63.5,49.4,29.06,SW,225,0.0,0.0,60,0.00,,---,0.00,VWS V14.01,2013-09-03 04:13:00,
2013-09-02 23:18:00,63.3,49.2,29.06,SW,225,0.0,0.0,60,0.00,,---,0.00,VWS V14.01,2013-09-03 04:18:00,
2013-09-02 23:23:00,63.0,48.9,29.06,SW,225,0.0,0.0,60,0.00,,---,0.00,VWS V14.01,2013-09-03 04:23:00,
2013-09-02 23:28:00,62.8,49.6,29.06,SW,225,0.0,0.0,62,0.00,,---,0.00,VWS V14.01,2013-09-03 04:28:00,
2013-09-02 23:33:00,62.8,49.6,29.06,SW,225,0.0,0.0,62,0.00,,---,0.00,VWS V14.01,2013-09-03 04:33:00,
2013-09-02 23:38:00,63.0,49.8,29.06,SW,225,0.0,0.0,62,0.00,,---,0.00,VWS V14.01,2013-09-03 04:38:00,
2013-09-02 23:43:00,63.0,49.8,29.06,SW,225,0.0,0.0,62,0.00,,---,0.00,VWS V14.01,2013-09-03 04:43:00,
2013-09-02 23:48:00,63.0,50.2,29.03,SW,225,0.0,0.0,63,0.00,,---,0.00,VWS V14.01,2013-09-03 04:48:00,
2013-09-02 23:53:00,63.0,50.2,29.03,SW,225,0.0,0.0,63,0.00,,---,0.00,VWS V14.01,2013-09-03 04:53:00,
2013-09-02 23:58:00,62.8,50.0,29.03,SW,225,0.0,0.0,63,0.00,,---,0.00,VWS V14.01,2013-09-03 04:58:00,